QPF
0.00 0.00 0.00 0.00 0.00 0.00 0.00 0.00 0.00 0.00 0.00 0.00 0.00 0.00 0.00 0.00 0.00 0.00 0.00 0.00 0.00 0.00 0.00 0.00 0.00 0.00 0.00 0.00 0.00 0.00 0.00 0.00 0.00 0.00 0.00 0.00 0.00 0.00 0.00 0.00 0.00 0.00 0.00 0.00 0.00 0.00 0.00
0.00 0.00 0.00 0.00 0.00 0.00 0.00 0.00 0.00 0.00 0.00 0.00 0.00 0.00 0.00 0.00 0.00 0.00 0.00 0.00 0.00 0.00 0.00 0.00 0.00 0.00 0.00 0.00 0.00 0.00 0.00 0.00 0.00 0.00 0.00 0.00 0.00 0.00 0.00 0.00 0.00 0.00 0.00 0.00 0.00 0.00 0.00
0.00 0.00 0.00 0.00 0.00 0.00 0.00 0.00 0.00 0.00 0.00 0.00 0.00 0.00 0.00 0.00 0.00 0.00 0.00 0.00 0.00 0.00 0.00 0.00 0.00 0.00 0.00 0.00 0.00 0.00 0.00 0.00 0.00 0.00 0.00 0.00 0.00 0.00 0.00 0.00 0.00 0.00 0.00 0.00 0.00 0.00 0.00
0.00 0.00 0.00 0.00 0.00 0.00 0.00 0.00 0.00 0.00 0.00 0.00 0.00 0.00 0.00 0.00 0.00 0.00 0.00 0.00 0.00 0.00 0.00 0.00 0.00 0.00 0.00 0.00 0.00 0.00 0.00 0.00 0.00 0.00 0.00 0.00 0.00 0.00 0.00 0.00 0.00 0.00 0.00 0.00 0.00 0.00 0.00
0.00 0.00 0.00 0.00 0.00 0.00 0.00 0.00 0.00 0.00 0.00 0.00 0.00 0.00 0.00 0.00 0.00 0.00 0.00 0.00 0.00 0.00 0.00 0.00 0.00 0.00 0.00 0.00 0.00 0.00 0.00 0.00 0.00 0.00 0.00 0.00 0.00 0.00 0.00 0.00 0.00 0.00 0.00 0.00 0.00 0.00 0.00
0.01 0.00 0.00 0.00 0.00 0.00 0.00 0.00 0.00 0.00 0.00 0.00 0.00 0.00 0.00 0.00 0.00 0.00 0.00 0.00 0.00 0.00 0.00 0.00 0.00 0.00 0.00 0.00 0.00 0.00 0.00 0.00 0.00 0.00 0.00 0.00 0.00 0.00 0.00 0.00 0.00 0.00 0.00 0.00 0.00 0.00 0.00
0.00 0.00 0.00 0.00 0.00 0.00 0.00 0.00 0.00 0.00 0.00 0.00 0.00 0.00 0.00 0.00 0.00 0.00 0.00 0.00 0.00 0.00 0.00 0.00 0.00 0.00 0.00 0.00 0.00 0.00 0.00 0.00 0.00 0.00 0.00 0.00 0.00 0.00 0.00 0.00 0.00 0.00 0.00 0.00 0.00 0.00 0.00
0.00 0.00 0.00 0.00 0.00 0.00 0.00 0.00 0.00 0.00 0.00 0.00 0.00 0.00 0.00 0.00 0.00 0.00 0.00 0.00 0.00 0.00 0.00 0.00 0.00 0.00 0.00 0.00 0.00 0.00 0.00 0.00 0.00 0.00 0.00 0.00 0.00 0.00 0.00 0.00 0.00 0.00 0.00 0.00 0.00 0.00 0.00
0.00 0.00 0.00 0.00 0.00 0.00 0.00 0.00 0.00 0.00 0.00 0.00 0.00 0.00 0.00 0.00 0.00 0.00 0.00 0.00 0.00 0.00 0.00 0.00 0.00 0.00 0.00 0.00 0.00 0.00 0.00 0.00 0.00 0.00 0.00 0.00 0.00 0.00 0.00 0.00 0.00 0.00 0.00 0.00 0.00 0.00 0.00
0.00 0.00 0.00 0.00 0.00 0.00 0.00 0.00 0.00 0.00 0.00 0.00 0.00 0.00 0.00 0.00 0.00 0.00 0.00 0.00 0.00 0.00 0.00 0.00 0.00 0.00 0.00 0.00 0.00 0.00 0.00 0.00 0.00 0.00 0.00 0.00 0.00 0.00 0.00 0.00 0.00 0.00 0.00 0.00 0.00 0.00 0.00
0.00 0.00 0.00 0.00 0.00 0.00 0.00 0.00 0.00 0.00 0.00 0.00 0.00 0.00 0.00 0.00 0.00 0.00 0.00 0.00 0.00 0.00 0.00 0.00 0.00 0.00 0.00 0.00 0.00 0.00 0.00 0.00 0.00 0.00 0.00 0.00 0.00 0.00 0.00 0.00 0.00 0.00 0.00 0.00 0.00 0.00 0.00
0.00 0.00 0.00 0.00 0.00 0.00 0.00 0.00 0.00 0.00 0.00 0.00 0.00 0.00 0.00 0.00 0.00 0.00 0.00 0.00 0.00 0.00 0.00 0.00 0.00 0.00 0.00 0.00 0.00 0.00 0.00 0.00 0.00 0.00 0.00 0.00 0.00 0.00 0.00 0.00 0.00 0.00 0.00 0.00 0.00 0.00 0.00
0.00 0.00 0.00 0.00 0.00 0.00 0.00 0.00 0.00 0.00 0.00 0.00 0.00 0.00 0.00 0.00 0.00 0.00 0.00 0.00 0.00 0.00 0.00 0.00 0.00 0.00 0.00 0.00 0.00 0.00 0.00 0.00 0.00 0.00 0.00 0.00 0.00 0.00 0.00 0.00 0.00 0.00 0.00 0.00 0.00 0.00 0.00
0.00 0.00 0.00 0.00 0.00 0.00 0.00 0.00 0.00 0.00 0.00 0.00 0.00 0.00 0.00 0.00 0.00 0.00 0.00 0.00 0.00 0.00 0.00 0.00 0.00 0.00 0.00 0.00 0.00 0.00 0.00 0.00 0.00 0.00 0.00 0.00 0.00 0.00 0.00 0.00 0.00 0.00 0.00 0.00 0.00 0.00 0.00
0.00 0.00 0.00 0.00 0.00 0.00 0.00 0.00 0.00 0.00 0.00 0.00 0.00 0.00 0.00 0.00 0.00 0.00 0.00 0.00 0.00 0.00 0.00 0.00 0.00 0.00 0.00 0.00 0.00 0.00 0.00 0.00 0.00 0.00 0.00 0.00 0.00 0.00 0.00 0.00 0.00 0.00 0.00 0.00 0.00 0.00 0.00
0.00 0.00 0.00 0.00 0.00 0.00 0.00 0.00 0.00 0.00 0.00 0.00 0.00 0.00 0.00 0.00 0.00 0.00 0.00 0.00 0.00 0.00 0.00 0.00 0.00 0.00 0.00 0.00 0.00 0.00 0.00 0.00 0.00 0.00 0.00 0.00 0.00 0.00 0.00 0.00 0.00 0.00 0.00 0.00 0.00 0.00 0.00
0.00 0.00 0.00 0.00 0.00 0.00 0.00 0.00 0.00 0.00 0.00 0.00 0.00 0.00 0.00 0.00 0.00 0.00 0.00 0.00 0.00 0.00 0.00 0.00 0.00 0.00 0.00 0.00 0.00 0.00 0.00 0.00 0.00 0.00 0.00 0.00 0.00 0.00 0.00 0.00 0.00 0.00 0.00 0.00 0.00 0.00 0.00
0.00 0.00 0.00 0.00 0.00 0.00 0.00 0.00 0.00 0.00 0.00 0.00 0.00 0.00 0.00 0.00 0.00 0.00 0.00 0.00 0.00 0.00 0.00 0.00 0.00 0.00 0.00 0.00 0.00 0.00 0.00 0.00 0.00 0.00 0.00 0.00 0.00 0.00 0.00 0.00 0.00 0.00 0.00 0.00 0.00 0.00 0.00
0.00 0.00 0.00 0.00 0.00 0.00 0.00 0.00 0.00 0.00 0.00 0.00 0.00 0.00 0.00 0.00 0.00 0.00 0.00 0.00 0.00 0.00 0.00 0.00 0.00 0.00 0.00 0.00 0.00 0.00 0.00 0.00 0.00 0.00 0.00 0.00 0.00 0.00 0.00 0.00 0.00 0.00 0.00 0.00 0.00 0.00 0.00
0.00 0.00 0.00 0.00 0.00 0.00 0.00 0.00 0.00 0.00 0.00 0.00 0.00 0.00 0.00 0.00 0.00 0.00 0.00 0.00 0.00 0.00 0.00 0.00 0.00 0.00 0.00 0.00 0.00 0.00 0.00 0.00 0.00 0.00 0.00 0.00 0.00 0.00 0.00 0.00 0.00 0.00 0.00 0.00 0.00 0.00 0.00
0.00 0.00 0.00 0.00 0.00 0.00 0.00 0.00 0.00 0.00 0.00 0.00 0.00 0.00 0.00 0.00 0.00 0.00 0.00 0.00 0.00 0.00 0.00 0.00 0.00 0.00 0.00 0.00 0.00 0.00 0.00 0.00 0.00 0.00 0.00 0.00 0.00 0.00 0.00 0.00 0.00 0.00 0.00 0.00 0.00 0.00 0.00
0.00 0.00 0.00 0.00 0.00 0.00 0.00 0.00 0.00 0.00 0.00 0.00 0.00 0.00 0.00 0.00 0.00 0.00 0.00 0.00 0.00 0.00 0.00 0.00 0.00 0.00 0.00 0.00 0.00 0.00 0.00 0.00 0.00 0.00 0.00 0.00 0.00 0.00 0.00 0.00 0.00 0.00 0.00 0.00 0.00 0.00 0.00
0.00 0.00 0.00 0.00 0.00 0.00 0.00 0.00 0.00 0.00 0.00 0.00 0.00 0.00 0.00 0.00 0.00 0.00 0.00 0.00 0.00 0.00 0.00 0.00 0.00 0.00 0.00 0.00 0.00 0.00 0.00 0.00 0.00 0.00 0.00 0.00 0.00 0.00 0.00 0.00 0.00 0.00 0.00 0.00 0.00 0.00 0.00
0.00 0.00 0.00 0.00 0.00 0.00 0.00 0.00 0.00 0.00 0.00 0.00 0.00 0.00 0.00 0.00 0.00 0.00 0.00 0.00 0.00 0.00 0.00 0.00 0.00 0.00 0.00 0.00 0.00 0.00 0.00 0.00 0.00 0.00 0.00 0.00 0.00 0.00 0.00 0.00 0.00 0.00 0.00 0.00 0.00 0.00 0.00
0.00 0.00 0.00 0.00 0.00 0.00 0.00 0.00 0.00 0.00 0.00 0.00 0.00 0.00 0.00 0.00 0.00 0.00 0.00 0.00 0.00 0.00 0.00 0.00 0.00 0.00 0.00 0.00 0.00 0.00 0.00 0.00 0.00 0.00 0.00 0.00 0.00 0.00 0.00 0.00 0.00 0.00 0.00 0.00 0.00 0.00 0.00
0.00 0.00 0.00 0.00 0.00 0.00 0.00 0.00 0.00 0.00 0.00 0.00 0.00 0.00 0.00 0.00 0.00 0.00 0.00 0.00 0.00 0.00 0.00 0.00 0.00 0.00 0.00 0.00 0.00 0.00 0.00 0.00 0.00 0.00 0.00 0.00 0.00 0.00 0.00 0.00 0.00 0.00 0.00 0.00 0.00 0.00 0.00
0.00 0.00 0.00 0.00 0.00 0.00 0.00 0.00 0.00 0.00 0.00 0.00 0.00 0.00 0.00 0.00 0.00 0.00 0.00 0.00 0.00 0.00 0.00 0.00 0.00 0.00 0.00 0.00 0.00 0.00 0.00 0.00 0.00 0.00 0.00 0.00 0.00 0.00 0.00 0.00 0.00 0.00 0.00 0.00 0.00 0.00 0.00
0.00 0.00 0.00 0.00 0.00 0.00 0.00 0.00 0.00 0.00 0.00 0.00 0.00 0.00 0.00 0.00 0.00 0.00 0.00 0.00 0.00 0.00 0.00 0.00 0.00 0.00 0.00 0.00 0.00 0.00 0.00 0.00 0.00 0.00 0.00 0.00 0.00 0.00 0.00 0.00 0.00 0.00 0.00 0.00 0.00 0.00 0.00
0.00 0.00 0.00 0.00 0.00 0.00 0.00 0.00 0.00 0.00 0.00 0.00 0.00 0.00 0.00 0.00 0.00 0.00 0.00 0.00 0.00 0.00 0.00 0.00 0.00 0.00 0.00 0.00 0.00 0.00 0.00 0.00 0.00 0.00 0.00 0.00 0.00 0.00 0.00 0.00 0.00 0.00 0.00 0.00 0.00 0.00 0.00
MSLP
1021.39 1021.39 1021.30 1021.15 1021.02 1020.83 1020.65 1020.42 1020.15 1019.80 1019.44 1019.13 1018.81 1018.45 1018.11 1017.74 1017.38 1017.20 1016.96 1016.62 1016.25 1016.04 1015.81 1015.64 1015.41 1015.19 1015.11 1015.02 1015.17 1014.67 1014.42 1014.18 1014.03 1014.05 1014.59 1015.18 1016.05 1017.47 1019.36 1020.60 1021.30 1021.94 1022.72 1023.12 1023.53 1023.70 1024.21
1021.21 1021.25 1021.25 1021.19 1021.08 1020.93 1020.75 1020.53 1020.30 1020.02 1019.72 1019.35 1018.95 1018.57 1018.24 1017.85 1017.51 1017.13 1016.85 1016.61 1016.29 1015.90 1015.64 1015.54 1015.28 1015.26 1015.11 1015.20 1014.80 1014.74 1014.62 1014.34 1014.51 1014.58 1015.22 1015.54 1016.45 1017.57 1019.68 1021.19 1021.83 1022.68 1022.96 1023.49 1023.85 1024.11 1024.48
1021.04 1021.07 1021.08 1021.09 1021.04 1020.92 1020.76 1020.62 1020.39 1020.12 1019.84 1019.49 1019.14 1018.72 1018.31 1017.93 1017.55 1017.14 1016.68 1016.40 1016.17 1015.85 1015.52 1015.34 1015.37 1015.14 1015.10 1015.19 1014.89 1014.67 1014.63 1015.17 1015.01 1014.92 1015.75 1016.28 1016.76 1017.70 1019.92 1021.59 1022.45 1022.71 1023.16 1023.53 1023.87 1024.18 1024.66
1020.76 1020.81 1020.82 1020.82 1020.81 1020.75 1020.66 1020.49 1020.29 1020.11 1019.92 1019.58 1019.13 1018.71 1018.32 1017.90 1017.53 1017.08 1016.60 1016.15 1015.79 1015.56 1015.32 1015.22 1015.38 1015.23 1015.06 1014.82 1014.86 1014.86 1014.93 1015.52 1015.51 1015.70 1016.20 1016.89 1017.09 1018.63 1020.37 1021.70 1022.38 1022.68 1023.01 1023.41 1023.76 1024.15 1024.88
1020.42 1020.56 1020.65 1020.67 1020.66 1020.59 1020.51 1020.38 1020.12 1019.91 1019.70 1019.44 1019.13 1018.77 1018.26 1017.80 1017.27 1016.86 1016.34 1015.92 1015.40 1015.28 1015.02 1015.15 1015.36 1015.33 1015.17 1014.76 1015.00 1015.26 1015.22 1015.59 1015.95 1016.32 1016.67 1016.90 1017.54 1019.84 1021.04 1021.45 1022.33 1022.71 1022.82 1023.24 1023.60 1024.14 1024.76
1020.21 1020.36 1020.52 1020.59 1020.62 1020.61 1020.53 1020.45 1020.25 1020.01 1019.59 1019.25 1018.98 1018.65 1018.26 1017.71 1017.15 1016.44 1015.95 1015.64 1015.12 1015.22 1015.12 1015.03 1015.28 1015.63 1015.31 1015.29 1015.31 1015.48 1015.52 1015.48 1016.01 1016.55 1016.98 1017.48 1018.78 1020.07 1021.04 1021.23 1021.66 1022.05 1022.50 1022.95 1023.45 1024.11 1024.69
1020.50 1020.56 1020.45 1020.50 1020.52 1020.43 1020.34 1020.22 1020.18 1020.05 1019.76 1019.30 1018.82 1018.42 1017.98 1017.49 1016.97 1016.46 1015.58 1015.28 1015.74 1015.75 1015.42 1015.16 1015.25 1015.32 1015.34 1015.52 1015.50 1015.86 1015.86 1015.85 1016.20 1016.94 1017.85 1018.54 1019.20 1020.09 1020.58 1020.78 1020.97 1021.43 1022.11 1022.67 1023.15 1023.82 1024.44
1020.80 1020.75 1020.68 1020.60 1020.42 1020.34 1020.25 1020.14 1020.07 1019.90 1019.65 1019.33 1018.97 1018.40 1017.86 1017.16 1016.62 1016.27 1016.21 1016.04 1016.14 1016.43 1015.79 1015.24 1015.16 1015.13 1015.18 1015.32 1015.76 1016.08 1016.04 1016.43 1016.78 1017.72 1018.35 1019.04 1019.58 1020.11 1020.34 1020.70 1020.95 1021.43 1021.97 1022.55 1023.16 1023.78 1024.37
1021.04 1020.93 1020.82 1020.64 1020.49 1020.37 1020.19 1020.06 1020.03 1019.91 1019.66 1019.35 1019.01 1018.54 1017.87 1016.96 1016.23 1016.14 1016.59 1016.48 1016.23 1016.16 1016.22 1015.52 1015.19 1015.14 1015.17 1015.39 1015.94 1016.32 1016.43 1016.66 1017.33 1018.08 1018.78 1019.39 1020.02 1020.18 1020.42 1020.79 1021.15 1021.61 1021.98 1022.51 1023.09 1023.59 1024.07
1020.98 1020.94 1020.85 1020.71 1020.68 1020.39 1020.08 1019.81 1019.93 1019.89 1019.70 1019.44 1019.07 1018.69 1018.06 1017.05 1016.66 1017.15 1016.76 1016.50 1016.50 1016.09 1016.46 1015.89 1015.44 1015.28 1015.44 1015.47 1016.32 1016.47 1016.61 1016.94 1017.79 1018.55 1019.12 1019.80 1020.08 1020.37 1020.75 1020.97 1021.30 1021.79 1022.12 1022.52 1022.94 1023.33 1023.99
1020.88 1020.83 1020.85 1020.91 1020.80 1020.45 1020.09 1019.77 1019.64 1019.69 1019.59 1019.41 1019.13 1018.65 1018.19 1017.84 1017.81 1017.50 1017.15 1016.52 1016.16 1016.38 1016.62 1016.07 1015.48 1015.31 1015.74 1016.16 1016.70 1016.82 1016.89 1017.03 1018.03 1018.93 1019.49 1020.17 1020.42 1020.69 1021.16 1021.36 1021.50 1022.12 1022.32 1022.69 1022.93 1023.21 1023.65
1020.88 1020.97 1020.91 1020.66 1020.80 1020.53 1020.23 1019.97 1019.73 1019.53 1019.35 1019.29 1018.98 1018.71 1018.39 1018.04 1018.01 1017.32 1016.97 1016.58 1016.42 1017.09 1016.36 1015.80 1015.73 1015.61 1016.05 1016.58 1016.75 1016.97 1017.13 1017.50 1018.57 1019.16 1019.75 1020.40 1020.65 1020.95 1021.27 1021.77 1021.87 1022.26 1022.54 1022.87 1023.13 1023.06 1023.28
1020.77 1020.77 1020.83 1020.59 1020.65 1020.60 1020.35 1019.99 1019.73 1019.45 1019.15 1019.09 1018.92 1018.38 1018.40 1018.09 1017.87 1017.31 1016.88 1017.08 1017.52 1017.31 1016.31 1016.38 1015.99 1016.21 1016.25 1016.86 1017.26 1017.27 1017.52 1018.15 1018.76 1019.57 1020.17 1020.69 1020.97 1021.28 1021.48 1022.00 1022.30 1022.40 1022.51 1022.66 1022.82 1022.63 1022.91
1020.73 1020.80 1020.73 1020.51 1020.41 1020.50 1020.36 1020.09 1019.80 1019.45 1019.19 1018.88 1018.59 1018.21 1018.06 1017.77 1017.60 1017.59 1017.47 1017.99 1017.96 1016.87 1016.36 1016.06 1016.31 1016.50 1016.88 1016.83 1017.41 1017.80 1018.09 1018.45 1018.81 1019.26 1020.26 1020.78 1021.28 1021.56 1021.93 1022.13 1022.55 1022.74 1022.63 1022.45 1022.75 1023.19 1023.06
1020.55 1020.52 1020.76 1020.73 1020.47 1020.29 1020.24 1020.03 1019.95 1019.69 1019.30 1018.81 1018.31 1018.00 1017.98 1017.55 1017.31 1017.63 1018.06 1018.82 1017.90 1016.96 1016.22 1016.32 1016.45 1016.69 1017.04 1017.37 1017.51 1018.01 1018.45 1018.66 1018.58 1018.90 1019.61 1020.63 1021.29 1021.93 1022.20 1022.46 1022.81 1023.17 1023.20 1022.92 1022.87 1023.67 1023.31
1020.27 1020.43 1020.43 1020.50 1020.67 1020.54 1020.12 1019.92 1019.71 1019.64 1019.35 1019.04 1018.79 1018.42 1017.89 1017.38 1017.11 1017.61 1018.77 1018.74 1017.81 1016.87 1016.22 1016.05 1016.34 1016.43 1017.11 1017.45 1018.05 1018.27 1018.38 1018.61 1018.90 1019.17 1019.24 1020.09 1021.12 1022.16 1022.62 1022.81 1023.22 1023.28 1023.68 1023.57 1023.33 1023.49 1023.00
1019.71 1020.10 1020.16 1020.21 1020.20 1020.43 1020.40 1020.07 1019.82 1019.61 1019.30 1019.03 1019.07 1018.43 1017.51 1017.32 1017.24 1018.07 1019.06 1018.50 1017.36 1016.31 1016.15 1016.09 1016.12 1016.50 1016.78 1017.29 1017.82 1018.45 1018.56 1018.87 1019.17 1019.57 1019.67 1020.08 1020.78 1022.57 1022.85 1022.88 1023.10 1023.71 1023.87 1024.37 1024.31 1024.02 1023.44
1019.71 1019.74 1020.01 1020.15 1020.11 1020.05 1020.04 1020.04 1019.83 1019.72 1019.47 1019.18 1019.20 1019.01 1017.65 1017.37 1018.24 1018.89 1018.99 1018.06 1017.04 1016.26 1015.98 1015.82 1015.94 1016.15 1016.56 1016.86 1017.76 1018.36 1018.72 1018.94 1019.33 1019.71 1020.11 1020.31 1020.91 1021.85 1022.28 1022.80 1022.99 1023.30 1023.50 1023.93 1024.52 1024.85 1024.54
1019.01 1019.33 1019.59 1019.88 1020.00 1020.04 1019.93 1019.80 1019.73 1019.69 1019.60 1019.68 1019.62 1019.04 1017.88 1017.76 1018.48 1019.33 1018.71 1017.81 1017.13 1016.57 1016.12 1015.86 1015.92 1016.03 1016.36 1016.89 1017.64 1018.12 1018.72 1019.64 1019.76 1019.92 1020.25 1020.42 1021.14 1021.58 1022.11 1022.98 1023.10 1023.35 1023.45 1023.85 1024.47 1024.49 1023.94
1018.55 1018.84 1019.18 1019.44 1019.66 1019.99 1019.97 1019.78 1019.65 1019.58 1019.60 1019.87 1019.93 1019.49 1019.11 1018.85 1018.71 1018.55 1018.65 1017.93 1017.03 1016.13 1016.16 1016.00 1015.92 1015.98 1016.47 1017.02 1017.49 1018.04 1018.99 1019.80 1020.17 1020.22 1020.16 1020.49 1021.00 1020.98 1021.07 1021.19 1021.76 1022.85 1023.27 1023.79 1023.72 1024.07 1023.02
1017.94 1018.41 1018.68 1018.96 1019.31 1019.59 1019.74 1019.73 1019.47 1019.50 1019.48 1019.69 1019.76 1019.76 1019.37 1019.71 1019.48 1018.72 1018.45 1017.94 1017.15 1016.61 1016.21 1016.10 1016.29 1016.19 1016.51 1017.18 1017.71 1018.36 1019.18 1020.09 1020.64 1020.73 1020.95 1020.85 1021.36 1021.31 1020.64 1020.66 1021.07 1021.52 1022.09 1022.91 1023.23 1021.85 1021.32
1017.00 1017.88 1018.26 1018.46 1018.75 1019.11 1019.41 1019.43 1019.33 1019.46 1019.36 1019.68 1019.46 1019.53 1019.81 1019.54 1019.32 1019.14 1018.72 1018.12 1017.44 1016.74 1016.52 1016.42 1016.67 1016.40 1016.64 1017.15 1017.10 1017.92 1019.00 1020.01 1020.17 1021.30 1021.50 1021.74 1021.54 1021.59 1020.94 1020.42 1020.88 1021.08 1021.09 1021.36 1021.58 1021.45 1020.49
1016.03 1016.72 1017.76 1018.07 1018.19 1018.55 1019.03 1019.23 1019.24 1019.09 1019.30 1019.25 1019.26 1019.11 1019.06 1019.68 1019.44 1019.16 1018.59 1017.85 1017.25 1016.98 1016.48 1016.31 1016.64 1017.11 1017.37 1017.32 1017.50 1017.97 1018.51 1019.27 1019.67 1020.68 1021.73 1022.20 1022.13 1022.15 1021.35 1020.63 1020.44 1020.15 1018.52 1019.44 1019.88 1019.63 1019.04
1015.24 1015.83 1016.47 1017.63 1018.06 1018.18 1018.34 1018.71 1018.97 1019.00 1019.06 1019.33 1018.88 1019.00 1019.16 1019.42 1019.17 1018.39 1017.79 1017.73 1017.43 1017.15 1017.23 1017.15 1017.27 1017.65 1018.05 1017.91 1018.23 1018.70 1019.30 1019.90 1020.43 1021.22 1021.55 1022.24 1022.64 1022.46 1021.82 1020.73 1019.58 1016.95 1017.10 1017.51 1017.70 1016.98 1016.88
1014.34 1015.10 1015.88 1016.38 1017.11 1017.78 1018.10 1018.25 1018.60 1018.73 1018.79 1019.31 1019.01 1018.98 1018.61 1018.59 1018.46 1018.13 1017.65 1017.61 1017.38 1017.27 1017.76 1017.79 1018.31 1018.48 1018.68 1018.73 1019.36 1019.91 1020.25 1020.46 1021.23 1021.83 1022.00 1022.27 1022.58 1023.22 1022.45 1021.01 1018.52 1016.30 1016.71 1016.99 1016.98 1015.06 1014.23
1013.44 1014.14 1015.00 1015.85 1016.44 1016.88 1017.37 1017.83 1018.12 1018.32 1018.49 1019.04 1018.92 1018.70 1018.59 1018.41 1017.70 1016.97 1017.15 1017.05 1017.52 1017.78 1018.23 1018.34 1018.86 1019.18 1019.36 1019.99 1020.43 1020.55 1020.45 1020.34 1021.36 1021.93 1022.32 1022.69 1022.72 1022.86 1023.09 1021.46 1018.80 1016.12 1015.70 1015.91 1016.21 1014.82 1013.59
1012.25 1013.10 1014.06 1014.77 1015.61 1016.22 1016.94 1017.37 1017.71 1018.03 1018.25 1018.70 1018.66 1018.55 1018.30 1018.17 1017.34 1016.90 1016.71 1016.73 1016.92 1017.47 1018.28 1018.69 1019.11 1019.73 1020.07 1020.87 1021.47 1021.32 1020.53 1019.90 1020.52 1021.11 1022.01 1022.61 1023.10 1022.73 1022.36 1021.00 1017.95 1015.53 1015.71 1016.14 1015.96 1014.63 1013.66
1011.20 1012.02 1013.10 1013.73 1014.67 1015.41 1015.98 1016.87 1017.25 1017.71 1017.92 1018.46 1018.43 1018.28 1018.34 1017.80 1017.33 1016.93 1016.28 1016.34 1016.96 1017.06 1017.69 1018.58 1019.40 1020.04 1020.93 1021.58 1021.76 1021.16 1020.51 1019.41 1019.51 1019.75 1020.15 1020.52 1021.38 1021.87 1021.61 1020.11 1017.32 1015.12 1015.92 1015.75 1014.21 1013.63 1013.76
1009.93 1010.90 1011.89 1012.79 1013.85 1014.59 1015.27 1016.09 1016.86 1017.27 1017.72 1017.97 1018.45 1018.11 1018.29 1018.11 1017.73 1017.35 1016.72 1016.17 1015.88 1016.07 1016.70 1018.02 1018.54 1018.96 1019.37 1020.64 1021.04 1020.73 1020.23 1019.89 1019.38 1019.75 1019.37 1019.28 1017.94 1018.32 1018.35 1015.99 1014.22 1014.23 1013.66 1013.46 1013.56 1013.59 1013.49
Thickness
5699 5697 5697 5697 5697 5697 5697 5697 5698 5699 5701 5703 5706 5709 5712 5716 5720 5722 5725 5728 5730 5732 5734 5735 5738 5740 5740 5729 5727 5744 5747 5751 5753 5753 5743 5737 5728 5714 5697 5687 5682 5674 5665 5658 5652 5648 5641
5702 5699 5698 5696 5696 5695 5695 5696 5696 5696 5697 5698 5702 5705 5709 5713 5716 5720 5723 5726 5729 5732 5734 5735 5737 5738 5734 5718 5740 5743 5745 5749 5747 5746 5738 5737 5727 5716 5694 5680 5678 5665 5660 5654 5648 5644 5639
5704 5702 5700 5698 5697 5696 5695 5694 5695 5696 5696 5696 5698 5702 5705 5709 5713 5717 5721 5725 5727 5730 5733 5735 5735 5737 5730 5725 5739 5742 5744 5740 5743 5744 5733 5731 5727 5717 5695 5677 5668 5665 5660 5653 5647 5643 5637
5705 5704 5702 5700 5698 5697 5697 5696 5696 5696 5695 5696 5698 5701 5703 5706 5710 5715 5719 5723 5728 5730 5732 5733 5732 5733 5721 5738 5739 5739 5740 5735 5738 5737 5732 5725 5724 5706 5691 5677 5669 5663 5658 5655 5645 5641 5630
5706 5704 5703 5701 5700 5698 5698 5698 5698 5698 5697 5697 5698 5699 5703 5706 5710 5713 5718 5722 5727 5729 5731 5731 5728 5725 5716 5736 5730 5734 5737 5730 5731 5730 5727 5726 5718 5693 5684 5678 5667 5657 5663 5650 5647 5637 5631
5706 5704 5702 5700 5699 5697 5695 5694 5695 5696 5698 5699 5699 5700 5702 5705 5709 5715 5719 5721 5725 5725 5726 5728 5726 5714 5719 5717 5726 5728 5732 5733 5726 5723 5719 5713 5699 5687 5677 5679 5675 5667 5657 5648 5645 5638 5629
5703 5702 5701 5700 5698 5697 5697 5696 5693 5693 5694 5697 5700 5702 5703 5705 5708 5712 5721 5720 5711 5710 5716 5714 5713 5712 5714 5719 5725 5720 5724 5724 5723 5712 5699 5696 5694 5686 5684 5678 5675 5667 5657 5652 5646 5636 5632
5698 5697 5697 5697 5698 5697 5696 5695 5693 5693 5693 5694 5696 5700 5704 5707 5709 5712 5712 5709 5708 5708 5701 5713 5713 5714 5718 5719 5709 5713 5721 5712 5709 5696 5696 5689 5684 5684 5681 5678 5675 5667 5659 5652 5643 5634 5630
5692 5692 5692 5693 5694 5694 5693 5692 5691 5690 5690 5691 5693 5696 5701 5707 5712 5711 5704 5704 5708 5709 5692 5702 5709 5709 5712 5715 5704 5705 5712 5708 5699 5693 5689 5684 5682 5682 5683 5676 5673 5664 5659 5652 5647 5635 5628
5689 5689 5689 5689 5688 5689 5691 5691 5688 5687 5687 5687 5688 5690 5696 5704 5704 5699 5701 5702 5702 5707 5669 5688 5696 5702 5706 5707 5697 5705 5707 5704 5693 5686 5683 5681 5681 5680 5676 5675 5671 5668 5658 5652 5645 5640 5642
5686 5686 5686 5684 5683 5684 5686 5689 5688 5686 5685 5684 5685 5688 5691 5693 5692 5693 5696 5700 5702 5696 5651 5687 5693 5707 5699 5694 5693 5696 5702 5701 5687 5683 5685 5681 5676 5675 5672 5672 5670 5666 5657 5650 5643 5633 5629
5681 5680 5680 5682 5680 5680 5681 5682 5683 5683 5683 5683 5684 5684 5686 5689 5688 5692 5693 5695 5694 5660 5649 5680 5687 5687 5686 5685 5687 5692 5693 5693 5684 5679 5675 5671 5673 5672 5670 5664 5665 5658 5653 5642 5629 5630 5646
5674 5675 5676 5677 5677 5676 5677 5679 5680 5681 5681 5680 5680 5684 5683 5684 5685 5689 5691 5684 5654 5644 5679 5672 5677 5678 5680 5675 5675 5681 5681 5677 5674 5671 5670 5667 5667 5666 5668 5663 5660 5657 5653 5659 5668 5653 5656
5667 5667 5669 5671 5672 5672 5672 5672 5675 5678 5678 5678 5679 5681 5682 5682 5684 5684 5680 5663 5647 5663 5664 5676 5671 5671 5668 5673 5670 5668 5668 5668 5671 5669 5654 5662 5666 5661 5660 5661 5659 5653 5654 5658 5663 5649 5642
5661 5663 5663 5663 5665 5666 5667 5669 5668 5670 5672 5675 5678 5680 5678 5681 5682 5679 5666 5638 5649 5656 5675 5666 5668 5664 5662 5664 5668 5664 5659 5660 5668 5668 5668 5656 5662 5653 5654 5654 5653 5650 5651 5643 5634 5614 5627
5654 5655 5657 5658 5656 5657 5661 5663 5664 5664 5666 5668 5670 5671 5674 5677 5679 5672 5651 5644 5654 5664 5670 5670 5660 5665 5656 5657 5656 5656 5658 5662 5665 5662 5668 5663 5659 5646 5646 5649 5643 5647 5638 5649 5637 5642 5651
5651 5648 5650 5650 5653 5650 5650 5653 5656 5657 5660 5661 5661 5668 5672 5672 5672 5657 5641 5643 5655 5666 5668 5663 5657 5656 5657 5653 5652 5649 5657 5658 5656 5654 5660 5656 5657 5641 5641 5642 5645 5638 5639 5624 5626 5624 5639
5638 5642 5642 5642 5644 5645 5645 5644 5646 5649 5650 5651 5652 5654 5665 5666 5647 5624 5639 5646 5660 5664 5664 5664 5660 5659 5651 5651 5647 5646 5651 5653 5651 5649 5650 5650 5643 5641 5645 5636 5638 5639 5641 5635 5635 5628 5588
5632 5632 5633 5633 5634 5635 5636 5638 5638 5640 5641 5641 5644 5644 5657 5657 5637 5631 5638 5647 5651 5655 5655 5657 5654 5656 5656 5648 5652 5646 5648 5637 5642 5645 5643 5642 5636 5640 5644 5634 5632 5633 5633 5621 5608 5603 5605
5622 5623 5623 5624 5624 5624 5625 5627 5630 5630 5632 5630 5630 5639 5638 5633 5630 5637 5638 5641 5645 5653 5650 5650 5652 5653 5649 5645 5643 5646 5641 5634 5634 5638 5642 5638 5629 5644 5644 5655 5639 5635 5627 5616 5632 5624 5627
5611 5611 5613 5614 5614 5614 5615 5616 5620 5621 5622 5622 5624 5625 5627 5623 5625 5631 5631 5637 5636 5638 5642 5644 5640 5643 5641 5634 5636 5635 5631 5625 5626 5630 5624 5630 5631 5624 5634 5636 5636 5644 5641 5618 5618 5643 5660
5605 5600 5601 5604 5605 5605 5605 5606 5610 5609 5612 5612 5614 5616 5607 5611 5617 5619 5620 5625 5627 5632 5634 5634 5631 5638 5633 5633 5639 5635 5624 5622 5630 5616 5616 5606 5624 5618 5633 5634 5626 5631 5635 5633 5635 5632 5635
5597 5597 5589 5591 5597 5597 5595 5595 5597 5601 5601 5607 5605 5606 5611 5601 5604 5609 5611 5619 5622 5625 5630 5633 5628 5626 5625 5628 5633 5629 5624 5620 5626 5617 5609 5606 5608 5610 5625 5621 5622 5635 5650 5642 5634 5632 5653
5586 5588 5588 5580 5580 5585 5588 5587 5586 5588 5590 5592 5599 5598 5601 5598 5595 5607 5616 5610 5614 5616 5617 5618 5619 5618 5618 5609 5610 5611 5604 5600 5601 5593 5598 5593 5598 5583 5605 5620 5618 5667 5653 5651 5654 5659 5652
5576 5576 5576 5578 5576 5572 5573 5576 5576 5578 5580 5579 5584 5588 5595 5583 5592 5602 5607 5607 5607 5608 5606 5608 5603 5601 5597 5606 5593 5596 5594 5605 5590 5577 5590 5586 5583 5565 5592 5603 5630 5673 5647 5644 5651 5678 5675
5565 5565 5565 5564 5565 5567 5566 5565 5567 5569 5572 5570 5573 5577 5581 5584 5594 5604 5600 5602 5596 5592 5593 5595 5587 5582 5586 5576 5571 5586 5588 5597 5588 5585 5572 5571 5570 5575 5549 5588 5615 5653 5655 5643 5645 5658 5682
5555 5556 5554 5556 5556 5556 5553 5554 5556 5558 5560 5561 5564 5566 5573 5577 5583 5589 5591 5590 5590 5586 5581 5577 5580 5578 5571 5544 5550 5561 5586 5590 5587 5586 5571 5560 5551 5567 5559 5569 5605 5644 5640 5630 5645 5656 5664
5543 5546 5545 5547 5546 5546 5547 5544 5545 5547 5549 5551 5554 5556 5560 5568 5571 5576 5586 5583 5575 5575 5580 5572 5570 5562 5540 5546 5547 5565 5568 5581 5582 5581 5574 5582 5561 5558 5543 5556 5597 5627 5626 5634 5651 5653 5655
5535 5535 5536 5536 5533 5535 5536 5535 5533 5535 5536 5541 5542 5545 5546 5551 5557 5557 5566 5573 5580 5580 5573 5558 5570 5564 5560 5548 5538 5548 5567 5549 5573 5579 5560 5577 5597 5586 5590 5612 5631 5621 5639 5638 5636 5644 5652